Time,TemperatureF,DewpointF,PressureIn,WindDirection,WindDirectionDegrees,WindSpeedMPH,WindSpeedGustMPH,Humidity,HourlyPrecipIn,Conditions,Clouds,dailyrainin,SoftwareType,DateUTC
2013-01-15 00:00:00,38.1,35.4,30.36,NE,34,0.0,5.0,90,0.02,,,0.10,meteohub,2013-01-15 05:00:00,
2013-01-15 00:02:00,38.1,35.8,30.36,NNE,30,3.0,5.0,91,0.02,,,0.10,meteohub,2013-01-15 05:02:00,
2013-01-15 00:03:00,38.1,35.8,30.36,NE,40,3.0,5.0,91,0.02,,,0.10,meteohub,2013-01-15 05:03:00,
2013-01-15 00:08:00,37.9,35.6,30.36,NE,55,1.0,4.0,91,0.02,,,0.10,meteohub,2013-01-15 05:08:00,
2013-01-15 00:13:00,37.9,35.6,30.36,North,355,2.0,4.0,91,0.02,,,0.11,meteohub,2013-01-15 05:13:00,
2013-01-15 00:18:00,37.8,35.4,30.35,NE,49,0.0,4.0,91,0.02,,,0.11,meteohub,2013-01-15 05:18:00,
2013-01-15 00:23:00,37.8,35.4,30.35,ENE,60,0.0,3.0,91,0.03,,,0.12,meteohub,2013-01-15 05:23:00,
2013-01-15 00:28:00,37.8,35.4,30.35,NE,53,1.0,4.0,91,0.03,,,0.12,meteohub,2013-01-15 05:28:00,
2013-01-15 00:33:00,37.6,35.4,30.34,ESE,117,0.0,4.0,92,0.03,,,0.12,meteohub,2013-01-15 05:33:00,
2013-01-15 00:38:00,37.6,35.4,30.34,East,84,0.0,3.0,92,0.03,,,0.13,meteohub,2013-01-15 05:38:00,
2013-01-15 00:43:00,37.6,35.4,30.34,East,80,0.0,3.0,92,0.03,,,0.13,meteohub,2013-01-15 05:43:00,
2013-01-15 00:48:00,37.6,35.4,30.34,East,80,0.0,2.0,92,0.04,,,0.14,meteohub,2013-01-15 05:48:00,
2013-01-15 00:53:00,37.4,35.2,30.34,East,80,0.0,2.0,92,0.04,,,0.14,meteohub,2013-01-15 05:53:00,
2013-01-15 00:59:00,37.4,35.6,30.33,ESE,117,0.0,0.0,93,0.04,,,0.14,meteohub,2013-01-15 05:59:00,
2013-01-15 01:04:00,37.2,35.4,30.33,ESE,117,0.0,0.0,93,0.04,,,0.14,meteohub,2013-01-15 06:04:00,
2013-01-15 01:09:00,37.2,35.4,30.34,ESE,117,0.0,0.0,93,0.04,,,0.15,meteohub,2013-01-15 06:09:00,
2013-01-15 01:14:00,37.2,35.4,30.34,ESE,117,0.0,0.0,93,0.04,,,0.15,meteohub,2013-01-15 06:14:00,
2013-01-15 01:19:00,37.2,35.4,30.34,ENE,69,0.0,0.0,93,0.04,,,0.15,meteohub,2013-01-15 06:19:00,
2013-01-15 01:24:00,37.2,35.6,30.35,ENE,69,0.0,0.0,94,0.04,,,0.16,meteohub,2013-01-15 06:24:00,
2013-01-15 01:29:00,37.2,35.6,30.35,ENE,69,0.0,0.0,94,0.04,,,0.16,meteohub,2013-01-15 06:29:00,
2013-01-15 01:34:00,37.0,35.4,30.35,East,82,0.0,0.0,94,0.04,,,0.17,meteohub,2013-01-15 06:34:00,
2013-01-15 01:39:00,37.0,35.4,30.35,North,10,1.0,0.0,94,0.04,,,0.17,meteohub,2013-01-15 06:39:00,
2013-01-15 01:44:00,37.0,35.4,30.35,North,6,1.0,2.0,94,0.04,,,0.17,meteohub,2013-01-15 06:44:00,
2013-01-15 01:49:00,37.0,35.4,30.34,NE,36,0.0,2.0,94,0.03,,,0.17,meteohub,2013-01-15 06:49:00,
2013-01-15 01:55:00,36.9,35.2,30.33,East,101,1.0,2.0,94,0.03,,,0.17,meteohub,2013-01-15 06:55:00,
2013-01-15 02:00:00,36.9,35.2,30.33,ESE,104,0.0,2.0,94,0.03,,,0.18,meteohub,2013-01-15 07:00:00,
2013-01-15 02:05:00,36.9,35.2,30.34,West,277,0.0,2.0,94,0.03,,,0.18,meteohub,2013-01-15 07:05:00,
2013-01-15 02:10:00,36.9,35.2,30.34,NE,35,3.0,3.0,94,0.03,,,0.18,meteohub,2013-01-15 07:10:00,
2013-01-15 02:15:00,36.7,35.1,30.33,NE,49,3.0,4.0,94,0.03,,,0.19,meteohub,2013-01-15 07:15:00,
2013-01-15 02:20:00,36.5,34.7,30.34,NNE,26,3.0,5.0,93,0.03,,,0.19,meteohub,2013-01-15 07:20:00,
2013-01-15 02:25:00,36.3,34.5,30.34,NE,46,1.0,6.0,93,0.03,,,0.19,meteohub,2013-01-15 07:25:00,
2013-01-15 02:30:00,36.1,34.3,30.33,NE,44,4.0,6.0,93,0.02,,,0.19,meteohub,2013-01-15 07:30:00,
2013-01-15 02:35:00,36.1,34.3,30.32,NNE,30,3.0,7.0,93,0.02,,,0.19,meteohub,2013-01-15 07:35:00,
2013-01-15 02:40:00,36.0,34.2,30.32,NNE,19,2.0,7.0,93,0.02,,,0.19,meteohub,2013-01-15 07:40:00,
2013-01-15 02:46:00,36.0,34.2,30.32,NNE,27,1.0,7.0,93,0.02,,,0.19,meteohub,2013-01-15 07:46:00,
2013-01-15 02:51:00,35.8,34.0,30.33,NNE,33,6.0,6.0,93,0.02,,,0.19,meteohub,2013-01-15 07:51:00,
2013-01-15 02:56:00,35.8,34.0,30.33,North,354,1.0,9.0,93,0.01,,,0.19,meteohub,2013-01-15 07:56:00,
2013-01-15 03:01:00,35.6,33.8,30.33,NNE,27,3.0,9.0,93,0.01,,,0.19,meteohub,2013-01-15 08:01:00,
2013-01-15 03:06:00,35.4,33.3,30.33,NE,40,2.0,7.0,92,0.01,,,0.19,meteohub,2013-01-15 08:06:00,
2013-01-15 03:11:00,35.2,33.1,30.33,NNE,13,1.0,7.0,92,0.01,,,0.19,meteohub,2013-01-15 08:11:00,
2013-01-15 03:16:00,35.2,33.1,30.32,NE,51,2.0,7.0,92,0.00,,,0.19,meteohub,2013-01-15 08:16:00,
2013-01-15 03:21:00,35.1,32.9,30.33,WNW,298,0.0,7.0,92,0.00,,,0.19,meteohub,2013-01-15 08:21:00,
2013-01-15 03:26:00,35.1,32.9,30.35,WNW,291,2.0,6.0,92,0.00,,,0.19,meteohub,2013-01-15 08:26:00,
2013-01-15 03:31:00,34.9,32.7,30.35,NNW,333,1.0,4.0,92,0.00,,,0.19,meteohub,2013-01-15 08:31:00,
2013-01-15 03:36:00,34.9,32.5,30.35,North,8,1.0,4.0,91,0.00,,,0.19,meteohub,2013-01-15 08:36:00,
2013-01-15 03:41:00,34.5,32.2,30.36,WNW,300,1.0,8.0,91,0.00,,,0.19,meteohub,2013-01-15 08:41:00,
2013-01-15 03:47:00,34.5,32.2,30.35,NNE,20,0.0,8.0,91,0.00,,,0.19,meteohub,2013-01-15 08:47:00,
2013-01-15 03:52:00,34.5,32.2,30.34,ESE,121,2.0,5.0,91,0.00,,,0.19,meteohub,2013-01-15 08:52:00,
2013-01-15 03:57:00,34.5,32.2,30.32,SE,127,5.0,5.0,91,0.00,,,0.19,meteohub,2013-01-15 08:57:00,
2013-01-15 04:02:00,34.3,32.0,30.32,ESE,114,0.0,5.0,91,0.00,,,0.19,meteohub,2013-01-15 09:02:00,
2013-01-15 04:07:00,34.3,32.0,30.32,South,187,0.0,6.0,91,0.00,,,0.19,meteohub,2013-01-15 09:07:00,
2013-01-15 04:12:00,34.3,32.0,30.33,ENE,61,0.0,6.0,91,0.00,,,0.19,meteohub,2013-01-15 09:12:00,
2013-01-15 04:17:00,34.5,32.2,30.33,ENE,61,0.0,3.0,91,0.00,,,0.19,meteohub,2013-01-15 09:17:00,
2013-01-15 04:22:00,34.3,32.0,30.34,ENE,61,0.0,3.0,91,0.00,,,0.19,meteohub,2013-01-15 09:22:00,
2013-01-15 04:27:00,34.3,32.2,30.33,NNE,20,1.0,2.0,92,0.00,,,0.19,meteohub,2013-01-15 09:27:00,
2013-01-15 04:32:00,34.3,32.2,30.33,NNE,27,0.0,2.0,92,0.00,,,0.19,meteohub,2013-01-15 09:32:00,
2013-01-15 04:37:00,34.3,32.2,30.33,NNE,30,1.0,2.0,92,0.00,,,0.19,meteohub,2013-01-15 09:37:00,
2013-01-15 04:42:00,34.3,32.2,30.33,NE,43,1.0,4.0,92,0.00,,,0.19,meteohub,2013-01-15 09:42:00,
2013-01-15 04:47:00,34.3,32.0,30.33,NE,44,0.0,4.0,91,0.00,,,0.19,meteohub,2013-01-15 09:47:00,
2013-01-15 04:52:00,34.3,32.0,30.32,North,6,1.0,4.0,91,0.00,,,0.19,meteohub,2013-01-15 09:52:00,
2013-01-15 04:57:00,34.3,32.0,30.33,West,276,0.0,4.0,91,0.00,,,0.19,meteohub,2013-01-15 09:57:00,
2013-01-15 05:02:00,34.3,32.0,30.33,North,6,0.0,4.0,91,0.00,,,0.19,meteohub,2013-01-15 10:02:00,
2013-01-15 05:07:00,34.3,32.0,30.34,NNE,15,0.0,4.0,91,0.00,,,0.19,meteohub,2013-01-15 10:07:00,
2013-01-15 05:12:00,34.3,32.0,30.33,NNE,12,0.0,2.0,91,0.00,,,0.19,meteohub,2013-01-15 10:12:00,
2013-01-15 05:17:00,34.3,32.0,30.35,NNE,30,1.0,2.0,91,0.00,,,0.19,meteohub,2013-01-15 10:17:00,
2013-01-15 05:22:00,34.5,32.2,30.35,WNW,297,0.0,2.0,91,0.00,,,0.19,meteohub,2013-01-15 10:22:00,
2013-01-15 05:27:00,34.5,32.2,30.35,WNW,297,0.0,2.0,91,0.00,,,0.19,meteohub,2013-01-15 10:27:00,
2013-01-15 05:32:00,34.5,32.2,30.35,WNW,297,0.0,2.0,91,0.00,,,0.19,meteohub,2013-01-15 10:32:00,
2013-01-15 05:37:00,34.5,32.2,30.35,NNW,328,0.0,2.0,91,0.00,,,0.19,meteohub,2013-01-15 10:37:00,
2013-01-15 05:42:00,34.5,32.2,30.35,NW,322,0.0,0.0,91,0.00,,,0.19,meteohub,2013-01-15 10:42:00,
2013-01-15 05:47:00,34.5,32.2,30.35,NNE,12,0.0,0.0,91,0.00,,,0.19,meteohub,2013-01-15 10:47:00,
2013-01-15 05:52:00,34.5,32.2,30.35,West,265,0.0,2.0,91,0.00,,,0.19,meteohub,2013-01-15 10:52:00,
2013-01-15 05:57:00,34.5,31.8,30.35,WNW,293,2.0,2.0,90,0.00,,,0.19,meteohub,2013-01-15 10:57:00,
2013-01-15 06:02:00,34.5,31.8,30.36,WSW,257,1.0,3.0,90,0.00,,,0.19,meteohub,2013-01-15 11:02:00,
2013-01-15 06:07:00,34.5,31.8,30.36,West,259,1.0,3.0,90,0.00,,,0.19,meteohub,2013-01-15 11:07:00,
2013-01-15 06:12:00,34.5,31.6,30.36,WNW,288,0.0,3.0,89,0.00,,,0.19,meteohub,2013-01-15 11:12:00,
2013-01-15 06:17:00,34.5,31.6,30.36,East,84,2.0,4.0,89,0.00,,,0.19,meteohub,2013-01-15 11:17:00,
2013-01-15 06:22:00,34.5,31.6,30.36,NW,323,0.0,4.0,89,0.00,,,0.19,meteohub,2013-01-15 11:22:00,
2013-01-15 06:27:00,34.5,31.6,30.36,WNW,282,1.0,4.0,89,0.00,,,0.19,meteohub,2013-01-15 11:27:00,
2013-01-15 06:32:00,34.5,31.3,30.37,West,278,1.0,4.0,88,0.00,,,0.19,meteohub,2013-01-15 11:32:00,
2013-01-15 06:37:00,34.5,31.3,30.37,ENE,76,1.0,3.0,88,0.00,,,0.19,meteohub,2013-01-15 11:37:00,
2013-01-15 06:42:00,34.5,31.3,30.37,NW,309,2.0,3.0,88,0.00,,,0.19,meteohub,2013-01-15 11:42:00,
2013-01-15 06:47:00,34.7,31.5,30.37,NNE,31,2.0,4.0,88,0.00,,,0.19,meteohub,2013-01-15 11:47:00,
2013-01-15 06:52:00,34.7,31.5,30.37,NNE,27,0.0,4.0,88,0.00,,,0.19,meteohub,2013-01-15 11:52:00,
2013-01-15 06:57:00,34.7,31.8,30.38,NNE,13,2.0,4.0,89,0.00,,,0.19,meteohub,2013-01-15 11:57:00,
2013-01-15 07:02:00,34.7,31.8,30.38,NNE,32,0.0,3.0,89,0.00,,,0.19,meteohub,2013-01-15 12:02:00,
2013-01-15 07:07:00,34.7,31.8,30.38,WNW,293,0.0,3.0,89,0.00,,,0.19,meteohub,2013-01-15 12:07:00,
2013-01-15 07:12:00,34.7,31.8,30.38,WNW,300,0.0,4.0,89,0.00,,,0.19,meteohub,2013-01-15 12:12:00,
2013-01-15 07:17:00,34.7,31.8,30.38,NNW,327,0.0,4.0,89,0.00,,,0.19,meteohub,2013-01-15 12:17:00,
2013-01-15 07:22:00,34.9,32.0,30.38,North,8,1.0,3.0,89,0.00,,,0.19,meteohub,2013-01-15 12:22:00,
2013-01-15 07:27:00,34.9,31.6,30.38,WNW,300,0.0,3.0,88,0.00,,,0.19,meteohub,2013-01-15 12:27:00,
2013-01-15 07:32:00,34.9,31.6,30.39,ENE,75,0.0,3.0,88,0.00,,,0.19,meteohub,2013-01-15 12:32:00,
2013-01-15 07:37:00,34.9,31.6,30.39,ENE,70,1.0,4.0,88,0.00,,,0.19,meteohub,2013-01-15 12:37:00,
2013-01-15 07:42:00,34.9,31.6,30.39,NNW,340,0.0,4.0,88,0.00,,,0.19,meteohub,2013-01-15 12:42:00,
2013-01-15 07:47:00,34.9,31.5,30.39,NNE,30,1.0,4.0,87,0.00,,,0.19,meteohub,2013-01-15 12:47:00,
2013-01-15 07:52:00,34.9,31.5,30.40,WNW,301,1.0,4.0,87,0.00,,,0.19,meteohub,2013-01-15 12:52:00,
2013-01-15 07:57:00,34.9,31.5,30.39,North,6,0.0,4.0,87,0.00,,,0.19,meteohub,2013-01-15 12:57:00,
2013-01-15 08:02:00,35.1,31.6,30.40,NNW,333,1.0,4.0,87,0.00,,,0.19,meteohub,2013-01-15 13:02:00,
2013-01-15 08:07:00,35.1,31.6,30.41,WNW,294,0.0,4.0,87,0.00,,,0.19,meteohub,2013-01-15 13:07:00,
2013-01-15 08:12:00,35.1,31.6,30.41,ENE,63,0.0,4.0,87,0.00,,,0.19,meteohub,2013-01-15 13:12:00,
2013-01-15 08:18:00,35.2,31.8,30.41,NW,315,3.0,3.0,87,0.00,,,0.19,meteohub,2013-01-15 13:18:00,
2013-01-15 08:23:00,35.2,31.8,30.42,NNE,12,0.0,4.0,87,0.00,,,0.19,meteohub,2013-01-15 13:23:00,
2013-01-15 08:28:00,35.2,31.5,30.42,WNW,291,1.0,4.0,86,0.00,,,0.19,meteohub,2013-01-15 13:28:00,
2013-01-15 08:33:00,35.2,31.5,30.42,NNE,24,1.0,5.0,86,0.00,,,0.19,meteohub,2013-01-15 13:33:00,
2013-01-15 08:38:00,35.2,31.1,30.41,ENE,61,1.0,5.0,85,0.00,,,0.19,meteohub,2013-01-15 13:38:00,
2013-01-15 08:43:00,35.4,31.3,30.42,ENE,67,1.0,5.0,85,0.00,,,0.19,meteohub,2013-01-15 13:43:00,
2013-01-15 08:48:00,35.4,31.1,30.42,NE,37,3.0,5.0,84,0.00,,,0.19,meteohub,2013-01-15 13:48:00,
2013-01-15 08:53:00,35.6,31.3,30.42,NE,41,4.0,7.0,84,0.00,,,0.19,meteohub,2013-01-15 13:53:00,
2013-01-15 08:58:00,35.8,31.5,30.42,North,359,1.0,7.0,84,0.00,,,0.19,meteohub,2013-01-15 13:58:00,
2013-01-15 09:03:00,35.8,31.1,30.42,West,264,0.0,7.0,83,0.00,,,0.19,meteohub,2013-01-15 14:03:00,
2013-01-15 09:08:00,35.8,31.1,30.42,NW,317,1.0,6.0,83,0.00,,,0.19,meteohub,2013-01-15 14:08:00,
2013-01-15 09:13:00,35.8,31.5,30.42,West,278,1.0,6.0,84,0.00,,,0.19,meteohub,2013-01-15 14:13:00,
2013-01-15 09:18:00,36.0,31.3,30.42,NNE,23,2.0,6.0,83,0.00,,,0.19,meteohub,2013-01-15 14:18:00,
2013-01-15 09:23:00,36.0,31.3,30.41,NE,56,2.0,4.0,83,0.00,,,0.19,meteohub,2013-01-15 14:23:00,
2013-01-15 09:28:00,36.0,31.3,30.42,NNW,330,2.0,4.0,83,0.00,,,0.19,meteohub,2013-01-15 14:28:00,
2013-01-15 09:34:00,36.0,31.3,30.42,WNW,300,1.0,7.0,83,0.00,,,0.19,meteohub,2013-01-15 14:34:00,
2013-01-15 09:39:00,36.0,31.3,30.42,NNE,13,2.0,7.0,83,0.00,,,0.19,meteohub,2013-01-15 14:39:00,
2013-01-15 09:44:00,36.0,30.9,30.43,WNW,297,2.0,7.0,82,0.00,,,0.19,meteohub,2013-01-15 14:44:00,
2013-01-15 09:49:00,36.0,30.9,30.43,NW,325,1.0,6.0,82,0.00,,,0.19,meteohub,2013-01-15 14:49:00,
2013-01-15 09:54:00,36.1,30.9,30.42,NNE,32,1.0,6.0,81,0.00,,,0.19,meteohub,2013-01-15 14:54:00,
2013-01-15 09:59:00,36.0,30.4,30.43,West,272,1.0,6.0,80,0.00,,,0.19,meteohub,2013-01-15 14:59:00,
2013-01-15 10:04:00,36.1,30.9,30.43,NE,36,3.0,6.0,81,0.00,,,0.19,meteohub,2013-01-15 15:04:00,
2013-01-15 10:09:00,36.1,30.9,30.43,ENE,57,1.0,9.0,81,0.00,,,0.19,meteohub,2013-01-15 15:09:00,
2013-01-15 10:14:00,36.1,30.6,30.43,WSW,255,1.0,9.0,80,0.00,,,0.19,meteohub,2013-01-15 15:14:00,
2013-01-15 10:19:00,36.1,30.2,30.43,NNW,330,2.0,9.0,79,0.00,,,0.19,meteohub,2013-01-15 15:19:00,
2013-01-15 10:24:00,36.0,30.0,30.43,NW,307,2.0,5.0,79,0.00,,,0.19,meteohub,2013-01-15 15:24:00,
2013-01-15 10:29:00,36.0,30.0,30.43,NE,53,2.0,5.0,79,0.00,,,0.19,meteohub,2013-01-15 15:29:00,
2013-01-15 10:34:00,36.0,30.0,30.43,WNW,303,3.0,5.0,79,0.00,,,0.19,meteohub,2013-01-15 15:34:00,
2013-01-15 10:39:00,36.0,30.0,30.43,North,6,1.0,5.0,79,0.00,,,0.19,meteohub,2013-01-15 15:39:00,
2013-01-15 10:45:00,36.0,30.0,30.43,WNW,301,2.0,6.0,79,0.00,,,0.19,meteohub,2013-01-15 15:45:00,
2013-01-15 10:50:00,36.1,30.2,30.43,NW,304,0.0,6.0,79,0.00,,,0.19,meteohub,2013-01-15 15:50:00,
2013-01-15 10:55:00,36.1,30.2,30.42,WNW,283,2.0,6.0,79,0.00,,,0.19,meteohub,2013-01-15 15:55:00,
2013-01-15 11:00:00,36.3,30.2,30.43,North,349,1.0,6.0,78,0.00,,,0.19,meteohub,2013-01-15 16:00:00,
2013-01-15 11:05:00,36.1,29.7,30.43,NNW,338,3.0,7.0,77,0.00,,,0.19,meteohub,2013-01-15 16:05:00,
2013-01-15 11:10:00,36.3,30.2,30.42,NNE,27,0.0,7.0,78,0.00,,,0.19,meteohub,2013-01-15 16:10:00,
2013-01-15 11:15:00,36.5,30.4,30.42,NNE,13,3.0,7.0,78,0.00,,,0.19,meteohub,2013-01-15 16:15:00,
2013-01-15 11:20:00,36.3,29.8,30.41,ENE,76,1.0,5.0,77,0.00,,,0.19,meteohub,2013-01-15 16:20:00,
2013-01-15 11:25:00,36.3,30.2,30.42,North,9,3.0,3.0,78,0.00,,,0.19,meteohub,2013-01-15 16:25:00,
2013-01-15 11:30:00,36.5,30.0,30.42,NE,42,3.0,6.0,77,0.00,,,0.19,meteohub,2013-01-15 16:30:00,
2013-01-15 11:35:00,36.3,29.1,30.41,NNE,30,2.0,6.0,75,0.00,,,0.19,meteohub,2013-01-15 16:35:00,
2013-01-15 11:40:00,36.1,28.9,30.41,NE,41,1.0,7.0,75,0.00,,,0.19,meteohub,2013-01-15 16:40:00,
2013-01-15 11:45:00,36.3,29.5,30.41,NE,44,2.0,7.0,76,0.00,,,0.19,meteohub,2013-01-15 16:45:00,
2013-01-15 11:50:00,36.1,28.9,30.39,NNE,33,5.0,7.0,75,0.00,,,0.19,meteohub,2013-01-15 16:50:00,
2013-01-15 11:56:00,36.1,29.3,30.40,NNE,13,2.0,7.0,76,0.00,,,0.19,meteohub,2013-01-15 16:56:00,
2013-01-15 12:01:00,36.3,29.5,30.41,WNW,291,0.0,7.0,76,0.00,,,0.19,meteohub,2013-01-15 17:01:00,
2013-01-15 12:06:00,36.3,29.5,30.39,East,81,1.0,7.0,76,0.00,,,0.19,meteohub,2013-01-15 17:06:00,
2013-01-15 12:11:00,36.3,29.1,30.38,WNW,284,2.0,6.0,75,0.00,,,0.19,meteohub,2013-01-15 17:11:00,
2013-01-15 12:16:00,36.3,29.1,30.38,NNE,28,1.0,6.0,75,0.00,,,0.19,meteohub,2013-01-15 17:16:00,
2013-01-15 12:21:00,36.3,29.1,30.38,NNE,32,6.0,6.0,75,0.00,,,0.19,meteohub,2013-01-15 17:21:00,
2013-01-15 12:26:00,36.1,28.9,30.38,North,353,3.0,7.0,75,0.00,,,0.19,meteohub,2013-01-15 17:26:00,
2013-01-15 12:31:00,36.1,29.3,30.37,North,1,3.0,7.0,76,0.00,,,0.19,meteohub,2013-01-15 17:31:00,
2013-01-15 12:36:00,36.1,28.9,30.38,NE,39,3.0,7.0,75,0.00,,,0.19,meteohub,2013-01-15 17:36:00,
2013-01-15 12:41:00,36.1,29.3,30.38,NE,49,5.0,6.0,76,0.00,,,0.19,meteohub,2013-01-15 17:41:00,
2013-01-15 12:46:00,36.1,29.3,30.37,NNW,344,3.0,6.0,76,0.00,,,0.19,meteohub,2013-01-15 17:46:00,
2013-01-15 12:51:00,36.1,28.9,30.37,NNE,17,4.0,6.0,75,0.00,,,0.19,meteohub,2013-01-15 17:51:00,
2013-01-15 12:56:00,36.1,28.9,30.37,NE,37,2.0,6.0,75,0.00,,,0.19,meteohub,2013-01-15 17:56:00,
2013-01-15 13:01:00,36.1,28.9,30.38,NE,44,3.0,6.0,75,0.00,,,0.19,meteohub,2013-01-15 18:01:00,
2013-01-15 13:06:00,36.1,28.9,30.35,North,4,2.0,6.0,75,0.00,,,0.19,meteohub,2013-01-15 18:06:00,
2013-01-15 13:11:00,36.3,29.5,30.36,WNW,298,1.0,4.0,76,0.00,,,0.19,meteohub,2013-01-15 18:11:00,
2013-01-15 13:16:00,36.3,29.1,30.36,NNE,32,2.0,3.0,75,0.00,,,0.19,meteohub,2013-01-15 18:16:00,
2013-01-15 13:22:00,36.3,29.1,30.36,NW,321,0.0,5.0,75,0.00,,,0.19,meteohub,2013-01-15 18:22:00,
2013-01-15 13:27:00,36.3,29.5,30.36,NNE,13,1.0,5.0,76,0.00,,,0.19,meteohub,2013-01-15 18:27:00,
2013-01-15 13:32:00,36.3,29.1,30.36,NE,43,6.0,6.0,75,0.00,,,0.19,meteohub,2013-01-15 18:32:00,
2013-01-15 13:37:00,36.3,29.5,30.36,NNE,16,1.0,6.0,76,0.00,,,0.19,meteohub,2013-01-15 18:37:00,
2013-01-15 13:42:00,36.5,29.7,30.35,North,356,0.0,6.0,76,0.00,,,0.19,meteohub,2013-01-15 18:42:00,
2013-01-15 13:47:00,36.5,29.7,30.35,NE,37,2.0,6.0,76,0.00,,,0.19,meteohub,2013-01-15 18:47:00,
2013-01-15 13:52:00,36.7,29.8,30.35,NNE,12,2.0,5.0,76,0.00,,,0.19,meteohub,2013-01-15 18:52:00,
2013-01-15 13:57:00,36.7,29.8,30.36,NE,44,0.0,4.0,76,0.00,,,0.19,meteohub,2013-01-15 18:57:00,
2013-01-15 14:02:00,36.7,29.5,30.35,NNE,32,2.0,4.0,75,0.00,,,0.19,meteohub,2013-01-15 19:02:00,
2013-01-15 14:07:00,36.7,29.8,30.35,NE,34,0.0,4.0,76,0.00,,,0.19,meteohub,2013-01-15 19:07:00,
2013-01-15 14:12:00,36.7,29.8,30.36,WNW,293,2.0,4.0,76,0.00,,,0.19,meteohub,2013-01-15 19:12:00,
2013-01-15 14:17:00,36.5,29.3,30.35,NE,43,2.0,5.0,75,0.00,,,0.19,meteohub,2013-01-15 19:17:00,
2013-01-15 14:22:00,36.5,29.7,30.35,NE,39,1.0,6.0,76,0.00,,,0.19,meteohub,2013-01-15 19:22:00,
2013-01-15 14:27:00,36.7,29.8,30.35,East,81,2.0,6.0,76,0.00,,,0.19,meteohub,2013-01-15 19:27:00,
2013-01-15 14:32:00,36.7,29.8,30.34,NNE,24,2.0,6.0,76,0.00,,,0.19,meteohub,2013-01-15 19:32:00,
2013-01-15 14:37:00,36.7,29.8,30.34,NNW,346,1.0,6.0,76,0.00,,,0.19,meteohub,2013-01-15 19:37:00,
2013-01-15 14:42:00,36.9,30.0,30.35,NE,39,0.0,6.0,76,0.00,,,0.19,meteohub,2013-01-15 19:42:00,
2013-01-15 14:47:00,36.9,30.4,30.36,NE,34,0.0,4.0,77,0.00,,,0.19,meteohub,2013-01-15 19:47:00,
2013-01-15 14:52:00,37.0,29.8,30.35,NNE,30,2.0,4.0,75,0.00,,,0.19,meteohub,2013-01-15 19:52:00,
2013-01-15 14:57:00,36.9,29.7,30.34,NNE,27,1.0,4.0,75,0.00,,,0.19,meteohub,2013-01-15 19:57:00,
2013-01-15 15:02:00,36.9,29.7,30.35,NE,42,2.0,4.0,75,0.00,,,0.19,meteohub,2013-01-15 20:02:00,
2013-01-15 15:07:00,36.9,29.7,30.35,NNE,30,1.0,4.0,75,0.00,,,0.19,meteohub,2013-01-15 20:07:00,
2013-01-15 15:12:00,36.9,30.0,30.35,NNE,30,0.0,4.0,76,0.00,,,0.19,meteohub,2013-01-15 20:12:00,
2013-01-15 15:17:00,37.0,29.8,30.35,North,355,1.0,4.0,75,0.00,,,0.19,meteohub,2013-01-15 20:17:00,
2013-01-15 15:22:00,37.0,29.8,30.35,NNE,30,5.0,5.0,75,0.00,,,0.19,meteohub,2013-01-15 20:22:00,
2013-01-15 15:27:00,36.9,29.3,30.35,North,6,3.0,6.0,74,0.00,,,0.19,meteohub,2013-01-15 20:27:00,
2013-01-15 15:32:00,36.9,29.7,30.35,NNE,18,3.0,6.0,75,0.00,,,0.19,meteohub,2013-01-15 20:32:00,
2013-01-15 15:37:00,36.7,29.1,30.36,NE,46,2.0,6.0,74,0.00,,,0.19,meteohub,2013-01-15 20:37:00,
2013-01-15 15:42:00,36.7,29.5,30.36,NNE,27,3.0,5.0,75,0.00,,,0.19,meteohub,2013-01-15 20:42:00,
2013-01-15 15:47:00,36.7,29.5,30.36,WNW,302,2.0,5.0,75,0.00,,,0.19,meteohub,2013-01-15 20:47:00,
2013-01-15 15:52:00,36.7,29.8,30.37,NNW,338,2.0,5.0,76,0.00,,,0.19,meteohub,2013-01-15 20:52:00,
2013-01-15 15:57:00,36.7,29.5,30.37,NW,312,2.0,5.0,75,0.00,,,0.19,meteohub,2013-01-15 20:57:00,
2013-01-15 16:02:00,36.7,29.5,30.36,NE,36,2.0,4.0,75,0.00,,,0.19,meteohub,2013-01-15 21:02:00,
2013-01-15 16:07:00,36.5,29.3,30.36,NNE,13,5.0,5.0,75,0.00,,,0.19,meteohub,2013-01-15 21:07:00,
2013-01-15 16:12:00,36.5,29.3,30.36,ENE,61,3.0,5.0,75,0.00,,,0.19,meteohub,2013-01-15 21:12:00,
2013-01-15 16:17:00,36.5,29.3,30.36,NE,40,5.0,5.0,75,0.00,,,0.19,meteohub,2013-01-15 21:17:00,
2013-01-15 16:22:00,36.3,29.5,30.37,NNE,20,0.0,7.0,76,0.00,,,0.19,meteohub,2013-01-15 21:22:00,
2013-01-15 16:27:00,36.3,29.1,30.36,NE,35,1.0,7.0,75,0.00,,,0.19,meteohub,2013-01-15 21:27:00,
2013-01-15 16:32:00,36.3,29.1,30.37,NNE,29,2.0,7.0,75,0.00,,,0.19,meteohub,2013-01-15 21:32:00,
2013-01-15 16:38:00,36.3,29.1,30.36,NE,42,1.0,5.0,75,0.00,,,0.19,meteohub,2013-01-15 21:38:00,
2013-01-15 16:43:00,36.3,29.1,30.36,North,8,2.0,5.0,75,0.00,,,0.19,meteohub,2013-01-15 21:43:00,
2013-01-15 16:48:00,36.3,29.1,30.36,ENE,64,2.0,5.0,75,0.00,,,0.19,meteohub,2013-01-15 21:48:00,
2013-01-15 16:53:00,36.3,29.1,30.36,NE,53,1.0,5.0,75,0.00,,,0.19,meteohub,2013-01-15 21:53:00,
2013-01-15 16:58:00,36.3,29.1,30.36,NW,304,0.0,5.0,75,0.00,,,0.19,meteohub,2013-01-15 21:58:00,
2013-01-15 17:03:00,36.3,29.1,30.37,NE,39,2.0,4.0,75,0.00,,,0.19,meteohub,2013-01-15 22:03:00,
2013-01-15 17:08:00,36.1,28.9,30.37,NE,55,2.0,4.0,75,0.00,,,0.19,meteohub,2013-01-15 22:08:00,
2013-01-15 17:13:00,36.1,28.9,30.36,NE,43,3.0,4.0,75,0.00,,,0.19,meteohub,2013-01-15 22:13:00,
2013-01-15 17:18:00,36.1,28.9,30.36,NNE,25,1.0,4.0,75,0.00,,,0.19,meteohub,2013-01-15 22:18:00,
2013-01-15 17:23:00,36.1,28.9,30.35,NE,42,2.0,5.0,75,0.00,,,0.19,meteohub,2013-01-15 22:23:00,
2013-01-15 17:28:00,36.1,29.3,30.34,East,82,1.0,5.0,76,0.00,,,0.19,meteohub,2013-01-15 22:28:00,
2013-01-15 17:33:00,36.0,29.1,30.35,NE,48,0.0,5.0,76,0.00,,,0.19,meteohub,2013-01-15 22:33:00,
2013-01-15 17:39:00,36.1,29.3,30.36,NNW,330,0.0,4.0,76,0.00,,,0.19,meteohub,2013-01-15 22:39:00,
2013-01-15 17:44:00,36.1,29.3,30.36,NE,44,1.0,2.0,76,0.00,,,0.19,meteohub,2013-01-15 22:44:00,
2013-01-15 17:49:00,36.1,28.9,30.35,East,93,1.0,2.0,75,0.00,,,0.19,meteohub,2013-01-15 22:49:00,
2013-01-15 17:54:00,36.1,29.3,30.34,East,82,1.0,2.0,76,0.00,,,0.19,meteohub,2013-01-15 22:54:00,
2013-01-15 17:59:00,36.1,28.9,30.35,NNW,338,1.0,3.0,75,0.00,,,0.19,meteohub,2013-01-15 22:59:00,
2013-01-15 18:04:00,36.1,29.3,30.34,North,4,0.0,3.0,76,0.00,,,0.19,meteohub,2013-01-15 23:04:00,
2013-01-15 18:09:00,36.0,29.1,30.35,NNE,24,1.0,2.0,76,0.00,,,0.19,meteohub,2013-01-15 23:09:00,
2013-01-15 18:14:00,36.1,29.7,30.35,North,4,0.0,2.0,77,0.00,,,0.19,meteohub,2013-01-15 23:14:00,
2013-01-15 18:19:00,36.1,29.7,30.37,WNW,300,0.0,2.0,77,0.00,,,0.19,meteohub,2013-01-15 23:19:00,
2013-01-15 18:24:00,36.1,29.7,30.38,West,270,2.0,2.0,77,0.00,,,0.19,meteohub,2013-01-15 23:24:00,
2013-01-15 18:29:00,36.1,29.7,30.38,North,359,0.0,2.0,77,0.00,,,0.19,meteohub,2013-01-15 23:29:00,
2013-01-15 18:34:00,36.1,29.7,30.38,WNW,297,0.0,2.0,77,0.00,,,0.19,meteohub,2013-01-15 23:34:00,
2013-01-15 18:39:00,36.1,29.7,30.38,NNE,15,0.0,2.0,77,0.00,,,0.19,meteohub,2013-01-15 23:39:00,
2013-01-15 18:44:00,36.1,29.3,30.38,NE,51,1.0,1.0,76,0.00,,,0.19,meteohub,2013-01-15 23:44:00,
2013-01-15 18:50:00,36.0,29.1,30.38,NNE,24,1.0,4.0,76,0.00,,,0.19,meteohub,2013-01-15 23:50:00,
2013-01-15 18:55:00,36.1,29.7,30.38,NE,41,2.0,4.0,77,0.00,,,0.19,meteohub,2013-01-15 23:55:00,
2013-01-15 19:00:00,36.0,29.1,30.38,NNE,19,1.0,4.0,76,0.00,,,0.19,meteohub,2013-01-16 00:00:00,
2013-01-15 19:05:00,36.0,28.8,30.38,North,1,1.0,5.0,75,0.00,,,0.00,meteohub,2013-01-16 00:05:00,
2013-01-15 19:10:00,36.0,28.8,30.36,NE,39,1.0,5.0,75,0.00,,,0.00,meteohub,2013-01-16 00:10:00,
2013-01-15 19:15:00,36.0,28.8,30.37,NE,56,1.0,4.0,75,0.00,,,0.00,meteohub,2013-01-16 00:15:00,
2013-01-15 19:20:00,36.0,29.1,30.37,NE,49,3.0,4.0,76,0.00,,,0.00,meteohub,2013-01-16 00:20:00,
2013-01-15 19:25:00,36.0,29.1,30.37,ENE,61,0.0,4.0,76,0.00,,,0.00,meteohub,2013-01-16 00:25:00,
2013-01-15 19:30:00,36.0,28.8,30.36,NE,50,1.0,4.0,75,0.00,,,0.00,meteohub,2013-01-16 00:30:00,
2013-01-15 19:35:00,36.0,28.8,30.36,NE,49,0.0,4.0,75,0.00,,,0.00,meteohub,2013-01-16 00:35:00,
2013-01-15 19:40:00,36.0,29.1,30.36,NE,48,0.0,4.0,76,0.00,,,0.00,meteohub,2013-01-16 00:40:00,
2013-01-15 19:45:00,36.0,28.8,30.35,NE,48,1.0,4.0,75,0.00,,,0.00,meteohub,2013-01-16 00:45:00,
2013-01-15 19:50:00,36.0,28.8,30.35,NNE,27,3.0,3.0,75,0.00,,,0.00,meteohub,2013-01-16 00:50:00,
2013-01-15 19:55:00,36.0,28.8,30.35,NNE,15,3.0,3.0,75,0.00,,,0.00,meteohub,2013-01-16 00:55:00,
2013-01-15 20:00:00,36.0,28.8,30.35,ESE,114,0.0,3.0,75,0.00,,,0.00,meteohub,2013-01-16 01:00:00,
2013-01-15 20:06:00,36.0,28.8,30.35,NNE,26,1.0,3.0,75,0.00,,,0.00,meteohub,2013-01-16 01:06:00,
2013-01-15 20:11:00,36.0,28.8,30.36,ENE,59,0.0,3.0,75,0.00,,,0.00,meteohub,2013-01-16 01:11:00,
2013-01-15 20:16:00,36.0,28.8,30.36,ENE,60,0.0,3.0,75,0.00,,,0.00,meteohub,2013-01-16 01:16:00,
2013-01-15 20:21:00,36.0,28.8,30.36,ENE,60,0.0,2.0,75,0.00,,,0.00,meteohub,2013-01-16 01:21:00,
2013-01-15 20:26:00,36.0,28.8,30.36,NE,48,1.0,1.0,75,0.00,,,0.00,meteohub,2013-01-16 01:26:00,
2013-01-15 20:31:00,36.0,28.8,30.36,NE,36,1.0,2.0,75,0.00,,,0.00,meteohub,2013-01-16 01:31:00,
2013-01-15 20:36:00,36.0,28.8,30.35,NE,43,1.0,2.0,75,0.00,,,0.00,meteohub,2013-01-16 01:36:00,
2013-01-15 20:41:00,36.0,28.8,30.34,NE,47,2.0,2.0,75,0.00,,,0.00,meteohub,2013-01-16 01:41:00,
2013-01-15 20:46:00,35.8,28.9,30.34,NNE,27,0.0,3.0,76,0.00,,,0.00,meteohub,2013-01-16 01:46:00,
2013-01-15 20:51:00,35.8,28.9,30.34,NNE,13,0.0,3.0,76,0.00,,,0.00,meteohub,2013-01-16 01:51:00,
2013-01-15 20:56:00,35.8,28.9,30.34,NE,49,0.0,3.0,76,0.00,,,0.00,meteohub,2013-01-16 01:56:00,
2013-01-15 21:01:00,35.8,28.9,30.34,NE,46,1.0,3.0,76,0.00,,,0.00,meteohub,2013-01-16 02:01:00,
2013-01-15 21:06:00,35.8,28.9,30.34,NNE,32,0.0,2.0,76,0.00,,,0.00,meteohub,2013-01-16 02:06:00,
2013-01-15 21:11:00,35.8,28.9,30.34,NE,49,0.0,2.0,76,0.00,,,0.00,meteohub,2013-01-16 02:11:00,
2013-01-15 21:16:00,35.8,28.9,30.34,East,101,0.0,2.0,76,0.00,,,0.00,meteohub,2013-01-16 02:16:00,
2013-01-15 21:22:00,35.8,28.9,30.34,ESE,103,0.0,2.0,76,0.00,,,0.00,meteohub,2013-01-16 02:22:00,
2013-01-15 21:27:00,35.8,28.9,30.33,NNE,30,1.0,1.0,76,0.00,,,0.00,meteohub,2013-01-16 02:27:00,
2013-01-15 21:32:00,35.8,28.9,30.32,NE,34,1.0,2.0,76,0.00,,,0.00,meteohub,2013-01-16 02:32:00,
2013-01-15 21:37:00,35.8,29.3,30.32,ENE,66,0.0,2.0,77,0.00,,,0.00,meteohub,2013-01-16 02:37:00,
2013-01-15 21:42:00,35.8,29.7,30.32,East,82,0.0,2.0,78,0.00,,,0.00,meteohub,2013-01-16 02:42:00,
2013-01-15 21:47:00,35.6,29.5,30.32,NE,35,2.0,2.0,78,0.00,,,0.00,meteohub,2013-01-16 02:47:00,
2013-01-15 21:52:00,35.6,29.5,30.32,NE,37,0.0,3.0,78,0.00,,,0.00,meteohub,2013-01-16 02:52:00,
2013-01-15 21:57:00,35.4,29.3,30.32,NE,43,0.0,3.0,78,0.00,,,0.00,meteohub,2013-01-16 02:57:00,
2013-01-15 22:02:00,35.4,28.9,30.32,NNE,33,1.0,3.0,77,0.00,,,0.00,meteohub,2013-01-16 03:02:00,
2013-01-15 22:07:00,35.4,29.3,30.32,NE,55,1.0,3.0,78,0.00,,,0.00,meteohub,2013-01-16 03:07:00,
2013-01-15 22:12:00,35.4,29.5,30.31,East,96,2.0,3.0,79,0.00,,,0.00,meteohub,2013-01-16 03:12:00,
2013-01-15 22:17:00,35.4,29.5,30.32,NNW,346,0.0,3.0,79,0.00,,,0.00,meteohub,2013-01-16 03:17:00,
2013-01-15 22:22:00,35.2,29.7,30.32,NNE,32,0.0,2.0,80,0.00,,,0.00,meteohub,2013-01-16 03:22:00,
2013-01-15 22:27:00,35.1,30.2,30.32,North,10,0.0,2.0,82,0.01,,,0.01,meteohub,2013-01-16 03:27:00,
2013-01-15 22:32:00,35.1,30.4,30.32,North,10,0.0,1.0,83,0.01,,,0.01,meteohub,2013-01-16 03:32:00,
2013-01-15 22:37:00,34.7,30.7,30.32,North,11,0.0,0.0,85,0.02,,,0.02,meteohub,2013-01-16 03:37:00,
2013-01-15 22:42:00,34.5,30.7,30.32,North,10,0.0,0.0,86,0.02,,,0.02,meteohub,2013-01-16 03:42:00,
2013-01-15 22:47:00,34.3,30.9,30.32,North,10,0.0,0.0,87,0.03,,,0.03,meteohub,2013-01-16 03:47:00,
2013-01-15 22:52:00,34.0,30.7,30.32,North,10,0.0,0.0,88,0.03,,,0.03,meteohub,2013-01-16 03:52:00,
2013-01-15 22:57:00,34.0,31.1,30.32,East,98,0.0,0.0,89,0.04,,,0.04,meteohub,2013-01-16 03:57:00,
2013-01-15 23:02:00,33.6,30.9,30.31,NNE,17,0.0,0.0,90,0.04,,,0.04,meteohub,2013-01-16 04:02:00,
2013-01-15 23:07:00,33.6,30.9,30.31,NNE,27,1.0,1.0,90,0.05,,,0.05,meteohub,2013-01-16 04:07:00,
2013-01-15 23:12:00,33.4,30.7,30.30,NE,39,1.0,4.0,90,0.05,,,0.05,meteohub,2013-01-16 04:12:00,
2013-01-15 23:17:00,33.4,30.7,30.31,NW,309,0.0,4.0,90,0.05,,,0.05,meteohub,2013-01-16 04:17:00,
2013-01-15 23:22:00,33.3,30.9,30.31,North,6,1.0,4.0,91,0.05,,,0.05,meteohub,2013-01-16 04:22:00,
2013-01-15 23:27:00,33.3,30.9,30.30,ENE,68,0.0,3.0,91,0.04,,,0.05,meteohub,2013-01-16 04:27:00,
2013-01-15 23:32:00,33.3,31.1,30.30,NNW,346,0.0,2.0,92,0.05,,,0.06,meteohub,2013-01-16 04:32:00,
2013-01-15 23:37:00,33.3,31.1,30.29,NNE,32,1.0,2.0,92,0.04,,,0.06,meteohub,2013-01-16 04:37:00,
2013-01-15 23:42:00,33.1,31.1,30.29,NNE,24,1.0,3.0,92,0.05,,,0.07,meteohub,2013-01-16 04:42:00,
2013-01-15 23:47:00,33.1,31.1,30.29,NNE,23,1.0,3.0,92,0.04,,,0.07,meteohub,2013-01-16 04:47:00,
2013-01-15 23:52:00,33.1,31.1,30.29,NE,43,1.0,3.0,92,0.04,,,0.07,meteohub,2013-01-16 04:52:00,
2013-01-15 23:57:00,33.1,31.1,30.29,NE,56,1.0,3.0,92,0.04,,,0.08,meteohub,2013-01-16 04:57:00,